Change the Weather History Date:

Tuesday, February 14, 2012

  Actual Average Record
Temperature  
Mean Temperature 23 °F 12 °F  
Max Temperature 36 °F 22 °F 40 °F (2002)
Min Temperature 10 °F 2 °F -28 °F (1943)
Degree Days  
Heating Degree Days 42 53  
Month to date heating degree days 662 775  
Since 1 July heating degree days 5173 6441  
Cooling Degree Days 0 0  
Month to date cooling degree days 0 0  
Year to date cooling degree days 0 0  
Moisture  
Dew Point 18 °F    
Average Humidity 74    
Maximum Humidity 92    
Minimum Humidity 56    
Precipitation  
Precipitation 0.00 in 0.02 in 0.22 in (1998)
Month to date precipitation T 0.21  
Year to date precipitation 0.38 0.76  
Snow  
Snow 0.00 in 0.20 in - ()
Month to date snowfall 0.0 3.0  
Since 1 July snowfall 10.6 33.6  
Snow Depth 1.00 in    
Sea Level Pressure  
Sea Level Pressure 29.67 in    
Wind  
Wind Speed 3 mph (SE)    
Max Wind Speed 8 mph    
Max Gust Speed 9 mph    
Visibility 10 miles    
Events      
T = Trace of Precipitation, MM = Missing Value Source: NWS Daily Summary

Daily Weather History Graph

Daily Weather History Graph

Search for Another Location

Airport or City:

Trip Planner

Search our weather history database for the weather conditions in past years. The results will help you decide how hot, cold, wet, or windy it might be!

Date:

Astronomy

Feb. 14, 2012 Rise Set
Actual Time 7:37 AM CST 5:49 PM CST
Civil Twilight 7:05 AM CST 6:21 PM CST
Nautical Twilight 6:29 AM CST 6:57 PM CST
Astronomical Twilight 5:53 AM CST 7:33 PM CST
Moon 1:34 AM CST (2/14) 10:43 AM CST (2/14)
Length of Visible Light 11h 15m
Length of Day
10h 11m
Waning Gibbous, 50% of the Moon is Illuminated
Feb 14
Waning Gibbous
Feb 21
New
Feb 29
First Quarter
Mar 8
Full
Mar 14
Last Quarter

Hourly Weather History & Observations

Time (CST) Temp. Windchill Dew Point Humidity Pressure Visibility Wind Dir Wind Speed Gust Speed Precip Events Conditions
12:53 AM 17.1 °F 10.0 °F 12.9 °F 84% 29.64 in 10.0 mi South 4.6 mph - N/A   Partly Cloudy
1:53 AM 14.0 °F 5.1 °F 10.0 °F 84% 29.63 in 10.0 mi SSE 5.8 mph - N/A   Partly Cloudy
2:53 AM 15.1 °F 6.4 °F 10.9 °F 84% 29.63 in 10.0 mi SE 5.8 mph - N/A   Partly Cloudy
3:53 AM 14.0 °F 3.9 °F 10.0 °F 84% 29.63 in 10.0 mi SSE 6.9 mph - N/A   Clear
4:53 AM 10.9 °F 4.7 °F 8.1 °F 88% 29.63 in 10.0 mi South 3.5 mph - N/A   Scattered Clouds
5:53 AM 12.2 °F - 8.6 °F 85% 29.59 in 10.0 mi Calm Calm - N/A   Partly Cloudy
6:53 AM 12.0 °F 5.9 °F 9.0 °F 88% 29.64 in 10.0 mi South 3.5 mph - N/A   Partly Cloudy
7:53 AM 14.0 °F 8.2 °F 10.0 °F 84% 29.65 in 10.0 mi SSE 3.5 mph - N/A   Mostly Cloudy
8:53 AM 17.1 °F 8.7 °F 12.9 °F 84% 29.66 in 10.0 mi SSE 5.8 mph - N/A   Mostly Cloudy
9:53 AM 21.0 °F - 16.0 °F 81% 29.66 in 9.0 mi Calm Calm - N/A   Mostly Cloudy
10:53 AM 26.1 °F - 19.0 °F 75% 29.66 in 10.0 mi Calm Calm - N/A   Mostly Cloudy
11:53 AM 28.9 °F - 19.0 °F 67% 29.66 in 10.0 mi Calm Calm - N/A   Mostly Cloudy
12:53 PM 33.1 °F 30.0 °F 21.0 °F 61% 29.65 in 10.0 mi East 3.5 mph - N/A   Scattered Clouds
1:53 PM 35.1 °F - 21.0 °F 57% 29.65 in 10.0 mi Calm Calm - N/A   Scattered Clouds
2:53 PM 36.0 °F 32.1 °F 21.0 °F 55% 29.65 in 10.0 mi NNE 4.6 mph - N/A   Mostly Cloudy
3:53 PM 36.0 °F - 21.0 °F 55% 29.66 in 10.0 mi Calm Calm - N/A   Mostly Cloudy
4:53 PM 33.1 °F 27.7 °F 24.1 °F 70% 29.68 in 10.0 mi NE 5.8 mph - N/A   Mostly Cloudy
5:53 PM 30.9 °F 27.5 °F 24.1 °F 76% 29.70 in 10.0 mi East 3.5 mph - N/A   Mostly Cloudy
6:53 PM 30.0 °F - 24.1 °F 79% 29.71 in 10.0 mi Calm Calm - N/A   Mostly Cloudy
7:53 PM 30.0 °F - 24.1 °F 79% 29.72 in 9.0 mi Calm Calm - N/A   Overcast
8:53 PM 27.0 °F - 24.1 °F 89% 29.73 in 9.0 mi Calm Calm - N/A   Overcast
9:53 PM 28.0 °F - 24.1 °F 85% 29.73 in 9.0 mi Calm Calm - N/A   Overcast
10:53 PM 27.0 °F 21.6 °F 23.0 °F 85% 29.75 in 8.0 mi South 4.6 mph - N/A   Overcast
11:53 PM 26.6 °F 22.6 °F 23.0 °F 86% 29.71 in 10.0 mi SSW 3.5 mph - N/A   Overcast